Location: Little Baddow
(51.7333°N, 0.5667°E)
Time: 23:17:01
(UTC+00:00)

Cosmos 1725 Rocket - Pass Details

Date: 08 November 2025
Orbit: 962 x 989 km, 82.9° (Epoch: 04 December)

Event Time Altitude Azimuth Distance (km) Brightness Sun altitude
Rises 04:53:55 0° 349° (NNW) 3,713 6.9 -20.3°
Reaches altitude 10° 04:56:27 10° 348° (NNW) 2,762 6.2 -19.9°
Maximum altitude 05:02:48 82° 263° (W) 1,007 3.9 -18.9°
Drops below altitude 10° 05:09:05 10° 177° (S) 2,741 6.4 -18.0°
Sets 05:11:36 0° 176° (S) 3,683 7.1 -17.6°
